Regional Weather Roundup
Issued by NWS Sioux Falls, SD

Home | Current Version | Previous Version | Text Only | Print | Product List | Glossary On
Versions: 1 2 3 4 5 6 7 8 9 10 11 12 13 14 15 16 17 18 19 20 21 22 23 24 25 26 27 28 29 30 31 32 33 34 35 36 37 38 39 40 41 42 43 44 45 46 47 48 49 50
000
ASUS43 KFSD 281202
RWRFSD

WEATHER ROUNDUP FOR SE SOUTH DAKOTA/SW MINNESOTA/NW IOWA
NATIONAL WEATHER SERVICE SIOUX FALLS SD
700 AM CDT MON JUL 28 2014

NOTE: "FAIR" INDICATES FEW OR NO CLOUDS BELOW 12,000 FEET WITH NO
SIGNIFICANT WEATHER AND OR OBSTRUCTIONS TO VISIBILITY.


SDZ038>040-050-052>070-281300-
SOUTHEAST SOUTH DAKOTA

CITY           SKY/WX    TMP DP  RH WIND       PRES   REMARKS
CHAMBERLAIN    CLEAR     51  50  96 W3        30.32S
6HR MIN TEMP:  49; 6HR MAX TEMP:  56;

HURON          CLEAR     50  48  93 NW5       30.29S
6HR MIN TEMP:  48; 6HR MAX TEMP:  53;

MADISON        CLOUDY    55  55 100 NW8       30.28R
MITCHELL       CLEAR     54  52  93 NW7       30.30R
6HR MIN TEMP:  53; 6HR MAX TEMP:  57;

SIOUX FALLS    CLOUDY    60  57  89 NW7       30.26S
6HR MIN TEMP:  56; 6HR MAX TEMP:  60;

WINNER         FAIR      53  50  89 SW3       30.33R
YANKTON        CLEAR     54  52  94 NW9       30.28R
$$

MNZ071-072-080-081-089-090-097-098-281300-
SOUTHWEST MINNESOTA

CITY           SKY/WX    TMP DP  RH WIND       PRES   REMARKS
FAIRMONT       CLOUDY    61  57  88 NW3       30.21R
JACKSON        CLOUDY    61  55  82 N7        30.23R
LUVERNE        CLOUDY    59  55  88 NW6       30.26R
MARSHALL       CLOUDY    59  55  88 NW7       30.23R
6HR MIN TEMP:  57; 6HR MAX TEMP:  61;

MONTEVIDEO     CLOUDY    61  59  94 NW5       30.25R
PIPESTONE      CLOUDY    57  55  94 N8        30.26R
REDWOOD FALLS  CLOUDY    62  60  93 NW6       30.22R
TRACY          CLOUDY    60  59  95 CALM      30.25R
WINDOM         CLOUDY    61  57  88 NW8       30.23R
WORTHINGTON    CLOUDY    59  55  88 NW8       30.25R
$$

IAZ001>003-012>014-020>022-031-032-NEZ013-014-SDZ071-281300-
NORTHWEST IOWA

CITY           SKY/WX    TMP DP  RH WIND       PRES   REMARKS
CHEROKEE       PTCLDY    55  55 100 N3        30.23S
DENISON        MOCLDY    55  55 100 VRB3      30.20S
ESTHERVILLE    CLOUDY    60  58  92 N7        30.21S
LE MARS        CLEAR     57  55  94 N6        30.25R
SIOUX CITY     CLEAR     58  55  90 NW6       30.24S
6HR MIN TEMP:  55; 6HR MAX TEMP:  61;

SPENCER        CLOUDY    58  56  93 W6        30.23R
6HR MIN TEMP:  53; 6HR MAX TEMP:  59;

STORM LAKE     CLOUDY    55  55 100 NW7       30.23S
$$

ABBREVIATIONS USED IN REMARKS
   TC - TEMPERATURE IN CELSIUS
  WCI - WIND CHILL INDEX
   HX - HEAT INDEX
  VSB - VISIBILITY



USA.gov is the U.S. government's official web portal to all federal, state and local government web resources and services.